Regional Weather Roundup
Issued by NWS

Home | Current Version | Previous Version | Graphics & Text | Print | Product List | Glossary On
Versions: 1 2 3 4 5 6 7 8 9 10 11 12 13 14 15 16 17 18 19 20 21 22 23 24 25 26 27 28
000
ASUS45 KCYS 200110
RWRWY

WYOMING REGIONAL WEATHER ROUNDUP
NATIONAL WEATHER SERVICE CHEYENNE WY
700 PM MDT THU OCT 19 2017

NOTE:  "FAIR" INDICATES FEW OR NO CLOUDS BELOW 12,000 FEET
WITH NO SIGNIFICANT WEATHER AND/OR OBSTRUCTIONS TO VISIBILITY.

WYZ001-200200-
YELLOWSTONE NATIONAL PARK

CITY           SKY/WX    TMP DP  RH WIND       PRES   REMARKS
LK YELLOWSTONE   N/A     38  23  55 CALM      29.96F
W YELLOWSTONE  NOT AVBL

$$
WYZ002>013-054>058-071-098>099-200200-
NORTHERN WYOMING

CITY           SKY/WX    TMP DP  RH WIND       PRES   REMARKS
JACKSON        FAIR      53  11  18 SW7       29.89F
CODY           FAIR      61  17  18 SW14      29.77F
GREYBULL       FAIR      66  22  18 SE3       29.70F
WORLAND        FAIR      55  20  25 S9        29.72F
SHERIDAN       FAIR      61  29  29 W9        29.67F
BUFFALO        FAIR      58  24  27 W9        29.75S
GILLETTE       FAIR      65  18  16 S15       29.72F
HULETT         FAIR      61  21  21 S9        29.75S
NEWCASTLE      FAIR      63  19  19 SE10      29.80F

$$
WYZ014>020-022>026-101>103-200200-
CENTRAL WYOMING

CITY           SKY/WX    TMP DP  RH WIND       PRES   REMARKS
BIG PINEY      FAIR      50  17  27 W8        29.95F
PINEDALE       FAIR      50  14  23 SW8       29.96F
DUBOIS         FAIR      48  14  25 W14       29.92S
LANDER         FAIR      58  26  29 S3        29.83S
RIVERTON       FAIR      57  20  23 CALM      29.83F
CASPER         FAIR      55  18  23 SW12      29.85F
DOUGLAS        FAIR      59  23  25 S5        29.86S

$$
WYZ021-027>030-104>119-200200-
SOUTHERN WYOMING

CITY           SKY/WX    TMP DP  RH WIND       PRES   REMARKS
EVANSTON       MOCLDY    56  27  32 W12       29.96F
KEMMERER       MOCLDY    54   9  16 SW3       29.97S
FORT BRIDGER   FAIR      56  14  19 S7        29.98F
ROCK SPRINGS   FAIR      58  14  17 S9        29.95F
DIXON          FAIR      56  24  29 CALM      30.01S
RAWLINS        FAIR      55  24  30 W8        29.98F
SARATOGA       FAIR      54  25  32 SW10      30.01F
LARAMIE        FAIR      54  23  30 W5        30.00F
CHEYENNE       FAIR      57  33  40 W7        29.96S
TORRINGTON     FAIR      64  23  21 SE7       29.82S
PINE BLUFFS    FAIR      54  28  37 CALM      29.91S

$$




USA.gov is the U.S. government's official web portal to all federal, state and local government web resources and services.